Regional Weather Roundup
Issued by NWS

Home | Current Version | Previous Version | Graphics & Text | Print | Product List | Glossary On
Versions: 1 2 3 4 5 6 7 8 9 10 11 12 13 14 15 16 17 18 19 20 21 22 23 24 25 26 27 28 29 30 31 32 33 34 35 36 37 38 39 40 41 42 43 44 45 46 47 48 49 50
000
ASUS43 KLOT 200308
RWRIL

ILLINOIS REGIONAL WEATHER ROUNDUP
NATIONAL WEATHER SERVICE CHICAGO/ROMEOVILLE IL
1000 PM CDT SAT MAY 19 2018

NOTE: "FAIR" INDICATES FEW OR NO CLOUDS BELOW 12,000 FEET WITH NO
SIGNIFICANT WEATHER AND/OR OBSTRUCTIONS TO VISIBILITY.

* THESE STATIONS ARE NOT UNDER NWS QUALITY CONTROL. THEY ALSO MAY NOT
  REPORT WEATHER SUCH AS PRECIPITATION OR FOG.

ILZ001-002-007-009-015-016-024-200400-
NORTHWEST ILLINOIS

CITY           SKY/WX    TMP DP  RH WIND       PRES   REMARKS
MOLINE         FAIR      71  63  75 CALM      29.93R
SAVANNA*       FAIR      71  62  71 E10       29.94R
$$

ILZ003-004-008-010-011-017-018-200400-
NORTH CENTRAL ILLINOIS

CITY           SKY/WX    TMP DP  RH WIND       PRES   REMARKS
ROCKFORD       CLOUDY    63  59  87 S7        29.99R
FREEPORT*      FAIR      66  60  82 SE9       29.98R
ROCHELLE*      MOCLDY    65  60  84 E9        29.98R
DE KALB*       FAIR      63  61  93 SE5       30.00R
PERU*          MOCLDY    70  64  79 E10       29.97R
$$

ILZ005-006-012>014-019>023-200400-
NORTHEAST ILLINOIS

CITY           SKY/WX    TMP DP  RH WIND       PRES   REMARKS
CHICAGO-OHARE  MOCLDY    60  55  83 SE3       29.98R
CHICAGO-MIDWAY CLOUDY    58  55  90 S3        29.99R
AURORA         CLOUDY    63  61  93 NE3       29.99R
LANSING*       CLOUDY    60  59  97 CALM      30.00R FOG
JOLIET*        MOCLDY    66  61  84 E3        29.98R
WAUKEGAN       FAIR      53  52  96 CALM      29.98R FOG
DUPAGE AIRPORT FAIR      63  60  90 CALM      29.98R
KANKAKEE*      FAIR      65  60  84 NE7       29.99R
WHEELING       FAIR      58  55  90 S3        30.00R
MORRIS*        FAIR      66  60  81 NE3       29.96S
ROMEOVILLE*    FAIR      62  58  87 E6        29.99R
NORTHERLY ISL    N/A     53  51  93 S7          N/A
$$

LMZ740>746-200400-
SOUTHERN LAKE MICHIGAN

STATION/POSITION SKY/WX   TEMP    WIND        PRES    VSBY  WAVE
                          AIR SEA DIR/SP/G                  HT/PER
                          (F)     (DEG/KT/KT) (MB)    (MI)  (FT/S)
WILMETTE HARBOR            51 48  170/  6/  6   N/A           1/ 5
HARRISON CRIB              53     200/ 12/ 12   N/A
BURNHAM HARBOR             55     240/  2/  6   N/A
CALUMET HARBOR             55      CALM  /  2 1015.3R
BURNS HARBOR               59        CALM     1015.9R
MICHIGAN CITY              60     120/  3/  4   N/A
MICHIGAN CITY 6N           56 54  120/  4/  6   N/A           1
ST. JOSEPH                 55 55   CALM  /  2 1015.5          1
$$

ILZ025>027-034>036-040-047-049-050-058-095>099-200400-
WEST-CENTRAL ILLINOIS

CITY           SKY/WX    TMP DP  RH WIND       PRES   REMARKS
QUINCY         CLOUDY    71  64  78 S10       29.94R
MACOMB*        MOCLDY    71  64  76 S7        29.96S
JACKSONVILLE*  CLOUDY    70  61  71 S8        29.97R
PITTSFIELD*    CLOUDY    70  65  82 S7        29.99R
$$

ILZ028>032-037-038-041>044-048-051>054-059>061-200400-
CENTRAL ILLINOIS

CITY           SKY/WX    TMP DP  RH WIND       PRES   REMARKS
PONTIAC        MOCLDY    71  64  78 E8        29.98R
BLOOMINGTON    FAIR      73  63  70 SW9       29.99R
DECATUR        FAIR      72  66  81 SW5       29.97R
PEORIA         FAIR      72  64  76 S5        29.95R
LACON*         MOCLDY    73  60  63 E7        29.96R
LINCOLN*       CLOUDY    74  65  72 CALM      29.96R
SPRINGFIELD    CLOUDY    74  61  63 S7        29.96R
TAYLORVILLE    FAIR      67  62  84 CALM      29.97S
$$

ILZ033-039-045-046-055>057-062-063-200400-
EAST-CENTRAL ILLINOIS

CITY           SKY/WX    TMP DP  RH WIND       PRES   REMARKS
CHAMPAIGN      FAIR      73  64  73 W7        29.96R
DANVILLE*      FAIR      73  66  80 W8        29.95R
RANTOUL*       FAIR      76  66  71 W7        29.97R
MATTOON        FAIR      71  60  68 W3        29.96R
PARIS*         FAIR      71  67  89 CALM      29.98R
$$

ILZ079-100>102-200400-
SOUTHWEST ILLINOIS

CITY           SKY/WX    TMP DP  RH WIND       PRES   REMARKS
ALTON          TSTM      68  64  88 W21       30.02R
BELLEVILLE     CLOUDY    71  61  70 W12G21    30.04R
CAHOKIA*       CLOUDY    71  61  70 W7G17     30.04R
$$

ILZ064>066-069>071-074>076-080>082-084>086-088>090-092>094-200400-
SOUTH-CENTRAL ILLINOIS

CITY           SKY/WX    TMP DP  RH WIND       PRES   REMARKS
CARBONDALE     FAIR      67  64  90 CALM      30.01R
CAIRO*         FAIR      68  65  90 S5        29.99S
EFFINGHAM*     MOCLDY    69  62  79 CALM      29.99R
MARION         FAIR      67  66  98 NW3       30.02R
CENTRALIA*     CLOUDY    67  66  95 S8        30.00R
SALEM*         FAIR      70  61  71 S7        29.98R
METROPOLIS*    FAIR      69  66  93 SW6       30.00R
$$

ILZ067-068-072-073-078-083-087-091-200400-
SOUTHEAST ILLINOIS

CITY           SKY/WX    TMP DP  RH WIND       PRES   REMARKS
LAWRENCEVILLE  FAIR      73  67  81 SW6       29.97R
FLORA*         FAIR      73  68  83 SW6       29.97S
FAIRFIELD*     FAIR      71  66  87 CALM      29.97R
HARRISBURG*    FAIR      70  66  88 W7        30.00R
ROBINSON*      FAIR      69  66  92 CALM      29.98R
CARMI*         FAIR      71  68  90 SE5       29.98R
$$

ABBREVIATIONS USED IN REMARKS
   TC - TEMPERATURE IN CELSIUS
  WCI - WIND CHILL INDEX
   HX - HEAT INDEX
  VSB - VISIBILITY
$$





USA.gov is the U.S. government's official web portal to all federal, state and local government web resources and services.